Pompano Beach, FL

11:47 PM EST on November 19, 2017 (GMT -0500)
Pompano Beach

Weather History for KPMP - March, 2013

Change the Weather History Date:

Friday, March 22, 2013

  Actual Average Record
Temperature  
Mean Temperature 66 °F -  
Max Temperature 75 °F 81 °F 92 °F (1977)
Min Temperature 57 °F 61 °F 43 °F (1960)
Cooling Degree Days 1    
Growing Degree Days 16 (Base 50)    
Moisture  
Dew Point 60 °F    
Average Humidity 72    
Maximum Humidity 93    
Minimum Humidity 52    
Precipitation  
Precipitation 0.00 in - - ()
Sea Level Pressure  
Sea Level Pressure 29.97 in    
Wind  
Wind Speed 6 mph (SE)    
Max Wind Speed 16 mph    
Max Gust Speed -    
Visibility 10 miles    
Events      
Averages and records for this station are not official NWS values.
T = Trace of Precipitation, MM = Missing Value Source: NWS Daily Summary

Daily Weather History Graph

Daily Weather History Graph

Search for Another Location

Airport or City:

Trip Planner

Search our weather history database for the weather conditions in past years. The results will help you decide how hot, cold, wet, or windy it might be!

Date:

Astronomy

Mar. 22, 2013 Rise Set
Actual Time 7:21 AM EDT 7:32 PM EDT
Civil Twilight 6:58 AM EDT 7:55 PM EDT
Nautical Twilight 6:32 AM EDT 8:22 PM EDT
Astronomical Twilight 6:05 AM EDT 8:49 PM EDT
Moon 3:21 PM EDT (3/22) 3:57 AM EDT (3/22)
Length of Visible Light 12h 56m
Length of Day
12h 10m
Waxing Gibbous, 77% of the Moon is Illuminated
Mar 22
Waxing Gibbous
Mar 27
Full
Apr 3
Last Quarter
Apr 10
New
Apr 18
First Quarter

Hourly Weather History & Observations

Time (EDT) Temp. Dew Point Humidity Pressure Visibility Wind Dir Wind Speed Gust Speed Precip Events Conditions
1:53 AM 59.0 °F 50.0 °F 72% 29.95 in 10.0 mi Calm Calm - N/A   Clear
2:53 AM 59.0 °F 50.0 °F 72% 29.94 in 10.0 mi Calm Calm - N/A   Clear
3:53 AM 57.9 °F 54.0 °F 87% 29.92 in 10.0 mi NNW 3.5 mph - N/A   Clear
4:53 AM 57.9 °F 54.0 °F 87% 29.92 in 10.0 mi Calm Calm - N/A   Clear
5:53 AM 57.9 °F 53.1 °F 84% 29.93 in 10.0 mi Calm Calm - N/A   Clear
6:53 AM 60.1 °F 52.0 °F 75% 29.95 in 10.0 mi Calm Calm - N/A   Mostly Cloudy
7:53 AM 66.9 °F 57.0 °F 70% 29.97 in 10.0 mi ESE 4.6 mph - N/A   Clear
8:53 AM 71.1 °F 55.9 °F 59% 29.99 in 10.0 mi ESE 6.9 mph - N/A   Scattered Clouds
9:53 AM 73.0 °F 57.0 °F 57% 30.01 in 10.0 mi SE 10.4 mph - N/A   Mostly Cloudy
10:53 AM 73.9 °F 57.0 °F 55% 30.02 in 10.0 mi ESE 12.7 mph - N/A   Scattered Clouds
11:53 AM 75.0 °F 57.0 °F 53% 30.02 in 10.0 mi SE 15.0 mph - N/A   Mostly Cloudy
12:53 PM 73.9 °F 57.0 °F 55% 30.02 in 10.0 mi ESE 12.7 mph - N/A   Overcast
1:53 PM 75.0 °F 57.0 °F 53% 30.00 in 10.0 mi ESE 15.0 mph - N/A   Overcast
2:53 PM 75.9 °F 57.0 °F 52% 29.97 in 10.0 mi SE 15.0 mph - N/A   Overcast
3:53 PM 75.9 °F 59.0 °F 56% 29.95 in 10.0 mi SE 16.1 mph - N/A   Mostly Cloudy
4:53 PM 75.0 °F 61.0 °F 62% 29.94 in 10.0 mi SE 16.1 mph - N/A   Mostly Cloudy
5:53 PM 73.9 °F 64.0 °F 71% 29.94 in 10.0 mi SE 13.8 mph - N/A   Mostly Cloudy
6:00 PM 73.4 °F 64.4 °F 73% 29.94 in 10.0 mi SE 12.7 mph - N/A   Overcast
6:11 PM 73.4 °F 64.4 °F 73% 29.94 in 10.0 mi SSE 15.0 mph - N/A   Mostly Cloudy
6:53 PM 73.9 °F 66.0 °F 76% 29.95 in 10.0 mi SE 10.4 mph - N/A   Mostly Cloudy
7:53 PM 73.9 °F 68.0 °F 82% 29.96 in 10.0 mi SSE 12.7 mph - N/A   Mostly Cloudy
8:53 PM 73.9 °F 69.1 °F 85% 29.97 in 10.0 mi SSE 11.5 mph - N/A   Mostly Cloudy
9:00 PM 73.4 °F 69.8 °F 88% 29.97 in 10.0 mi SE 10.4 mph - N/A   Mostly Cloudy
9:53 PM 73.9 °F 70.0 °F 87% 29.99 in 10.0 mi SSE 10.4 mph - N/A   Mostly Cloudy
10:53 PM 73.9 °F 71.1 °F 91% 30.00 in 10.0 mi SSE 5.8 mph - N/A   Mostly Cloudy
11:53 PM 73.9 °F 72.0 °F 93% 30.01 in 10.0 mi SSE 5.8 mph - N/A   Mostly Cloudy